Regional Weather Roundup
Issued by NWS New Orleans/Baton Rouge, LA

Home | Current Version | Previous Version | Text Only | Print | Product List | Glossary On
Versions: 1 2 3 4 5 6 7 8 9 10 11 12 13 14 15 16 17 18 19 20 21 22 23 24 25 26 27 28 29 30 31 32 33 34 35 36 37 38 39 40 41 42 43 44 45 46 47 48 49 50
000
ASUS44 KLIX 310711
RWRLIX
NEW ORLEANS REGIONAL WEATHER ROUNDUP
NATIONAL WEATHER SERVICE NEW ORLEANS LA
200 AM CDT TUE MAY 31 2016

NOTE: "FAIR" INDICATES FEW OR NO CLOUDS BELOW 12,000 FEET WITH NO
      SIGNIFICANT WEATHER AND/OR OBSTRUCTIONS TO VISIBILITY.
      SKY/WX - SKY CONDITION AND SIGNIFICANT WEATHER.
      TMP - AIR TEMPERATURE.     DP    - DEWPOINT TEMPERATURE.
      RH  - RELATIVE HUMIDITY.   PRES  - PRESSURE.
      HI  - HEAT INDEX.          WCI   - WIND CHILL INDEX.

*  THESE STATIONS ARE NOT NWS OR FAA STATIONS AND ARE NOT UNDER
   NWS QUALITY CONTROL.

LAZ038-040-048-061>063-065>067-069-310800-
SOUTHEAST LOUISIANA

CITY           SKY/WX    TMP DP  RH WIND       PRES   REMARKS
N.O. AUDUBON   NOT AVBL
N.O. INTL ARPT PTCLDY    74  70  87 W3        29.94F
N.O. LAKEFRONT CLEAR     79  71  76 W12       29.94F
N.O. DOWNTOWN*   N/A     76  70  82 CALM      29.95S
RESERVE*         N/A     73  71  93 CALM      29.95S
SLIDELL        CLOUDY    73  71  93 CALM      29.94S
BATON ROUGE    CLEAR     71  67  87 CALM      29.94F
BOOTHVILLE     CLEAR     76  69  79 W3        29.94F
BELLE CHASSE   CLEAR     72  70  93 W3        29.94S
BOGALUSA*        N/A     72  68  88 CALM      29.96S
GALLIANO*      SUNNY     67  65  95 CALM      29.94F
NEW ROADS*       N/A     71  68  90 CALM      29.94F
GONZALES*        N/A     72  71  99 CALM      29.94F
HAMMOND*       CLEAR     70  66  88 CALM      29.94F
HOUMA*         CLEAR     71  71  98 CALM      29.94F
PORT FOURCHON* SUNNY     79  72  78 SW6       29.94F

$$

MSZ070-080>082-310800-
SOUTHERN MISSISSIPPI

CITY           SKY/WX    TMP DP  RH WIND       PRES   REMARKS
MCCOMB         CLEAR     67  64  90 CALM      29.95F
GULFPORT       CLEAR     75  72  90 CALM      29.92F
BILOXI         NOT AVBL
PASCAGOULA     PTCLDY    68  67  96 CALM      29.93F

$$

COASTAL OBSERVATIONS
LAKE AND NEARSHORE STATIONS

STATION/POSITION TIME  TEMP    WIND        PRES    WAVE
                       AIR SEA DIR/SP/G            HT/PER
                 (UTC) (F)     (DEG/KT/KT) (MB)    (FT/S)
PASCAGOULA       0600   78     280/  4/  6 1013.2
WAVELAND YACHT   0600   78 82  280/  3/  5 1013.8
GRAND ISLE       0600   80 84  230/  3/  4 1014.0
SOUTHWEST PASS   0600          220/  6/  7   N/A
NEW CANAL        0600   78 81  230/  6/  7 1013.2
SHELL BEACH      0600   78 84  240/  5/  6 1014.0

OFFSHORE STATIONS

STATION/POSITION TIME  TEMP    WIND        PRES    WAVE
                       AIR SEA DIR/SP/G            HT/PER
                 (UTC) (F)     (DEG/KT/KT) (MB)    (FT/S)
64 S DAUPHIN ISL 0600   80 80  240/  6/  8 1014.1

$$




USA.gov is the U.S. government's official web portal to all federal, state and local government web resources and services.